Location: Arborea
(39.7744°N, 8.5819°E)
Time: 08:24:34
(UTC+00:00)

Cosmos 332 Rocket - Pass Details

Date: 03 June 2022
Orbit: 681 x 703 km, 74.0° (Epoch: 02 July)

Event Time Altitude Azimuth Distance (km) Brightness Sun altitude
Exits shadow 22:13:32 28° 71° (ENE) 1,258 5.1 -25.7°
Drops below altitude 10° 22:16:32 10° 38° (NE) 2,128 6.7 -25.9°
Sets 22:19:01 0° 29° (NNE) 3,049 7.7 -26.0°
